Location: Arroyo de San Miguel
(40.9167°N, 4.6667°W)
Time: 14:38:35
(UTC+00:00)

Lacrosse 5 rocket - Pass Details

Date: 19 May 2025
Orbit: 419 x 516 km, 57.0° (Epoch: 17 June)

Event Time Altitude Azimuth Distance (km) Brightness Sun altitude
Rises 22:57:57 0° 302° (WNW) 2,444 5.4 -26.5°
Reaches altitude 10° 23:00:27 10° 285° (WNW) 1,550 4.0 -26.7°
Enters shadow 23:00:52 12° 281° (W) 1,426 3.7 -26.7°
